This is the latest recevied weather packets stored in our database for station/object 9W3FAB-3. If no packets are shown the sender has not sent any weather packets the latest 1 day(s).
| Time | Temp. | Humidity | Pressure | Rain* | Wind** | Luminosity | Snow |
|---|---|---|---|---|---|---|---|
| 1778102706 | 26.11° C | 73% | 1006.9 hPa | - | - | - | - |
| 1778097301 | 26.67° C | 72% | 1007 hPa | - | - | - | - |
| 1778095499 | 26.67° C | 73% | 1006.9 hPa | - | - | - | - |
| 1778092791 | 26.67° C | 71% | 1007.3 hPa | - | - | - | - |
| 1778091882 | 26.11° C | 69% | 1007 hPa | - | - | - | - |
| 1778087377 | 26.67° C | 68% | 1008.2 hPa | - | - | - | - |
| 1778086476 | 26.67° C | 67% | 1008.3 hPa | - | - | - | - |
| 1778085575 | 26.67° C | 67% | 1008.4 hPa | - | - | - | - |
| 1778081972 | 26.67° C | 67% | 1008.6 hPa | - | - | - | - |
| 1778080170 | 26.67° C | 66% | 1008.6 hPa | - | - | - | - |
| 1778077518 | 26.67° C | 64% | 1008.1 hPa | - | - | - | - |
| 1778076618 | 26.67° C | 64% | 1008.1 hPa | - | - | - | - |
| 1778072105 | 26.11° C | 62% | 1007.2 hPa | - | - | - | - |
| 1778071204 | 26.11° C | 62% | 1007 hPa | - | - | - | - |
| 1778070303 | 26.11° C | 62% | 1007 hPa | - | - | - | - |
| 1778065801 | 26.11° C | 61% | 1005.4 hPa | - | - | - | - |
| 1778062194 | 25.56° C | 60% | 1004.6 hPa | - | - | - | - |
| 1778061293 | 25.56° C | 60% | 1004.6 hPa | - | - | - | - |
| 1778059491 | 25° C | 58% | 1003.9 hPa | - | - | - | - |
| 1778057701 | 23.89° C | 58% | 1003.9 hPa | - | - | - | - |
| 1778054987 | 24.44° C | 60% | 1003.8 hPa | - | - | - | - |
| 1778054086 | 25° C | 61% | 1004.1 hPa | - | - | - | - |
| 1778052286 | 24.44° C | 61% | 1004.4 hPa | - | - | - | - |
| 1778050481 | 25° C | 59% | 1004.3 hPa | - | - | - | - |
| 1778047779 | 24.44° C | 56% | 1005.1 hPa | - | - | - | - |
* Rain since midnight (hover to see other rain measurements)
** Current wind speed in m/s (hover to see current wind gust speed)